Regional Weather Roundup
Issued by NWS

Home | Current Version | Previous Version | Graphics & Text | Print | Product List | Glossary On
Versions: 1 2 3 4 5 6 7 8 9 10 11 12 13 14 15 16 17 18 19 20 21 22 23 24 25 26 27 28 29 30 31 32 33 34 35 36 37 38 39 40 41 42 43 44 45 46 47 48 49 50
000
ASUS43 KLSX 290359
RWRMO

WEATHER SUMMARY FOR MISSOURI
NATIONAL WEATHER SERVICE SPRINGFIELD MO
1000 PM CST SUN DEC 28 2014

NOTE: "FAIR" INDICATES FEW OR NO CLOUDS BELOW 12,000 FEET WITH NO
       SIGNIFICANT WEATHER AND/OR OBSTRUCTIONS TO VISIBILITY.
       CURRENT SKY AND/OR WEATHER CONDITIONS ARE NOT AVAILABLE FOR
       CHILLICOTHE AND FARMINGTON.

MOZ001>031-035>038-043-044-053-054-290500-
...NORTHERN AND WESTERN MISSOURI...

CITY           SKY/WX    TMP DP  RH WIND       PRES   REMARKS
KANSAS CTY INT CLOUDY    29  21  72 SE6       30.17S WCI  23
KANSAS C DTWN  MOCLDY    33  23  66 CALM      30.18S
LEE`S SUMMIT   CLEAR     31  20  63 SE6       30.18S WCI  25
ST JOSEPH      CLOUDY    28  23  81 N3        30.19R
CHILLICOTHE      N/A     28  23  81 CALM      30.21R
KIRKSVILLE     PTCLDY    28  19  69 CALM      30.20S

$$
MOZ066>068-077>081-088>096-101>105-290500-
...SOUTHWEST MISSOURI...

CITY           SKY/WX    TMP DP  RH WIND       PRES   REMARKS
SPRINGFIELD    CLEAR     26  21  81 CALM      30.16R
JOPLIN         CLEAR     27  23  85 E5        30.17S WCI  22

$$
MOZ032>034-039>042-045>050-055>058-069>072-290500-
...CENTRAL MISSOURI...

CITY           SKY/WX    TMP DP  RH WIND       PRES   REMARKS
COLUMBIA       PTCLDY    31  22  69 SE3       30.20S
JEFFERSON CITY CLEAR     25  21  85 CALM      30.23S
ROLLA          CLEAR     25  21  85 CALM      30.18S
SEDALIA        CLEAR     31  17  56 CALM      30.20S
OSAGE BEACH    CLEAR     25  21  86 CALM      30.20S

$$
MOZ051-052-059>065-290500-
...EAST CENTRAL MISSOURI...

CITY           SKY/WX    TMP DP  RH WIND       PRES   REMARKS
ST LOUIS INTL  CLEAR     28  22  78 CALM      30.23F
SPIRIT OF STL  CLEAR     24  21  88 CALM      30.23S
ST CHARLES     CLEAR     27  25  92 E5        30.24S WCI  22

$$
MOZ072>076-082>087-097>100-106>115-290500-
...SOUTH CENTRAL AND SOUTHEAST MISSOURI...

CITY           SKY/WX    TMP DP  RH WIND       PRES   REMARKS
CAPE GIRARDEAU CLOUDY    33  27  78 NE9       30.22F WCI  25
FARMINGTON     CLEAR     23  21  93 CALM      30.21F
POPLAR BLUFF   CLOUDY    34  26  72 NE8       30.21F WCI  27
WEST PLAINS    CLEAR     23  20  88 CALM      30.18S

$$


USA.gov is the U.S. government's official web portal to all federal, state and local government web resources and services.